Location: Unspecified
(0.0000°N, 0.0000°E)
Time: 20:17:02
(UTC+00:00)

Transit 2A - All Passes

Search period start: 14 July 2020 00:00
Search period end: 24 July 2020 00:00
Orbit: 592 x 967 km, 66.7° (Epoch: 14 July)

Date Brightness Start Highest point End Pass type
(mag) Time Alt. Az. Time Alt. Az. Time Alt. Az.
14 Jul - 00:30:10 10° SSE 00:34:07 28° ESE 00:38:23 10° NE night (unlit)
14 Jul - 02:14:21 10° WSW 02:17:06 15° WNW 02:19:59 10° NNW night (unlit)
14 Jul - 13:03:53 10° NNW 13:09:55 84° WSW 13:15:24 10° SSE daylight
14 Jul - 23:57:14 10° SE 00:00:06 16° ESE 00:03:04 10° ENE night (unlit)
15 Jul - 01:38:58 10° SW 01:42:54 26° WNW 01:47:10 10° NNW night (unlit)
15 Jul - 12:29:52 10° N 12:35:48 60° ENE 12:41:13 10° SSE daylight
16 Jul - 01:04:16 10° SW 01:08:44 45° WNW 01:13:40 10° N night (unlit)
16 Jul - 11:56:10 10° N 12:01:39 36° ENE 12:06:42 10° SE daylight
16 Jul - 13:40:56 10° WNW 13:44:30 17° WSW 13:47:54 10° SSW daylight
17 Jul - 00:29:57 10° SSW 00:34:36 81° WNW 00:39:48 10° NNE night (unlit)
17 Jul - 11:22:53 10° NNE 11:27:28 23° ENE 11:31:46 10° ESE daylight
17 Jul - 13:05:32 10° NW 13:10:27 27° WSW 13:15:01 10° SSW daylight
17 Jul - 23:55:57 10° S 00:00:32 56° ESE 00:05:35 10° NNE night (unlit)
18 Jul - 10:50:25 10° NE 10:53:15 14° ENE 10:56:00 10° E daylight
18 Jul - 12:30:46 10° NW 12:36:24 45° WSW 12:41:33 10° S daylight
18 Jul - 23:22:20 10° S 23:26:29 32° ESE 23:30:59 10° NE night (unlit)
19 Jul - 01:07:04 10° W 01:09:30 14° WNW 01:12:03 10° NW night (unlit)
19 Jul - 11:56:22 10° NNW 12:02:20 76° WSW 12:07:44 10° SSE daylight
19 Jul - 22:49:13 10° SSE 22:52:27 18° ESE 22:55:52 10° ENE night (unlit)
20 Jul - 00:31:28 10° WSW 00:35:18 24° WNW 00:39:26 10° NNW night (unlit)
20 Jul - 11:22:18 10° NNW 11:28:13 67° ENE 11:33:36 10° SSE daylight
20 Jul - 23:56:40 10° SW 00:01:07 40° WNW 00:06:02 10° N night (unlit)
21 Jul - 10:48:31 10° N 10:54:04 40° ENE 10:59:10 10° SE daylight
21 Jul - 12:33:51 10° WNW 12:36:54 15° WSW 12:39:49 10° SW daylight
21 Jul - 23:22:16 10° SSW 23:26:59 72° WNW 23:32:14 10° NNE night (unlit)
22 Jul - 10:15:09 10° NNE 10:19:54 25° ENE 10:24:19 10° ESE daylight
22 Jul - 11:58:13 10° NW 12:02:51 24° WSW 12:07:10 10° SSW daylight
22 Jul - 22:48:13 10° S 22:52:54 64° ESE 22:58:05 10° NNE night (unlit)
23 Jul - 09:42:27 10° NE 09:45:41 15° ENE 09:48:47 10° ESE daylight
23 Jul - 11:23:20 10° NW 11:28:48 40° WSW 11:33:48 10° S daylight
23 Jul - 22:14:31 10° S 22:18:51 36° ESE 22:23:35 10° NE night (unlit)
